Houghton, MI

11:35 PM EDT on April 27, 2017 (GMT -0400)
Houghton County Memorial

Weather History for KCMX - November, 2013

Change the Weather History Date:

Sunday, November 17, 2013

  Actual Average Record
Temperature  
Mean Temperature 42 °F -  
Max Temperature 48 °F 36 °F 70 °F (1953)
Min Temperature 34 °F 26 °F 3 °F (1959)
Degree Days  
Heating Degree Days 24    
Moisture  
Dew Point 41 °F    
Average Humidity 89    
Maximum Humidity 100    
Minimum Humidity 74    
Precipitation  
Precipitation 0.41 in - - ()
Sea Level Pressure  
Sea Level Pressure 29.25 in    
Wind  
Wind Speed 9 mph (WSW)    
Max Wind Speed 39 mph    
Max Gust Speed 51 mph    
Visibility 5 miles    
Events Fog , Rain , Snow    
Averages and records for this station are not official NWS values.
T = Trace of Precipitation, MM = Missing Value Source: NWS Daily Summary

Daily Weather History Graph

Daily Weather History Graph

Search for Another Location

Airport or City:

Trip Planner

Search our weather history database for the weather conditions in past years. The results will help you decide how hot, cold, wet, or windy it might be!

Date:

Astronomy

Nov. 17, 2013 Rise Set
Actual Time 8:01 AM EST 5:16 PM EST
Civil Twilight 7:27 AM EST 5:49 PM EST
Nautical Twilight 6:50 AM EST 6:27 PM EST
Astronomical Twilight 6:14 AM EST 7:03 PM EST
Moon 5:33 PM EST (11/17) 7:54 AM EST (11/17)
Length of Visible Light 10h 22m
Length of Day
9h 15m
Full, 100% of the Moon is Illuminated
Nov 17
Full
Nov 25
Last Quarter
Dec 2
New
Dec 9
First Quarter
Dec 17
Full

Hourly Weather History & Observations

Time (EST) Temp. Windchill Dew Point Humidity Pressure Visibility Wind Dir Wind Speed Gust Speed Precip Events Conditions
12:00 AM 44.6 °F 43.1 °F 42.8 °F 93% 29.28 in 3.0 mi ESE 3.5 mph - N/A   Overcast
12:11 AM 44.6 °F 43.1 °F 42.8 °F 93% 29.28 in 2.5 mi ESE 3.5 mph - 0.00 in Rain Light Rain
12:16 AM 44.6 °F 42.2 °F 42.8 °F 93% 29.28 in 1.5 mi SE 4.6 mph - 0.00 in   Overcast
12:21 AM 44.6 °F - 42.8 °F 93% 29.28 in 0.8 mi Calm Calm - 0.00 in   Overcast
12:32 AM 44.6 °F - 42.8 °F 93% 29.28 in 1.0 mi Calm Calm - 0.00 in   Overcast
12:39 AM 46.4 °F 43.5 °F 42.8 °F 87% 29.28 in 3.0 mi South 5.8 mph - 0.00 in   Overcast
12:53 AM 46.0 °F 42.5 °F 44.1 °F 93% 29.29 in 10.0 mi South 6.9 mph - 0.00 in   Overcast
1:11 AM 46.4 °F 42.9 °F 44.6 °F 93% 29.28 in 10.0 mi SSW 6.9 mph - N/A   Overcast
1:53 AM 46.0 °F 42.5 °F 44.1 °F 93% 29.29 in 9.0 mi SSW 6.9 mph - N/A   Overcast
2:53 AM 48.0 °F - 46.0 °F 93% 29.29 in 10.0 mi SSW 4.6 mph - N/A   Overcast
3:27 AM 46.4 °F 44.3 °F 46.4 °F 100% 29.27 in 7.0 mi SSW 4.6 mph - N/A   Mostly Cloudy
3:34 AM 48.2 °F - 46.4 °F 93% 29.27 in 7.0 mi SSW 8.1 mph - N/A   Mostly Cloudy
3:53 AM 48.0 °F - 46.0 °F 93% 29.29 in 8.0 mi SSW 8.1 mph - N/A   Partly Cloudy
4:20 AM 46.4 °F 44.3 °F 44.6 °F 93% 29.27 in 1.8 mi SSW 4.6 mph - N/A   Mostly Cloudy
4:33 AM 46.4 °F 44.3 °F 44.6 °F 93% 29.27 in 1.2 mi SSW 4.6 mph - N/A   Overcast
4:39 AM 46.4 °F 43.5 °F 44.6 °F 93% 29.27 in 2.0 mi SSW 5.8 mph - N/A   Mostly Cloudy
4:53 AM 46.9 °F - 45.0 °F 93% 29.29 in 4.0 mi SSW 6.9 mph - N/A   Scattered Clouds
5:53 AM 46.9 °F - 45.0 °F 93% 29.31 in 5.0 mi SSW 6.9 mph - 0.01 in   Partly Cloudy
6:53 AM 46.0 °F 42.5 °F 44.1 °F 93% 29.29 in 6.0 mi SSW 6.9 mph - N/A   Clear
7:53 AM 45.0 °F 39.7 °F 42.1 °F 90% 29.32 in 7.0 mi SSW 10.4 mph - N/A   Clear
8:53 AM 46.0 °F 43.1 °F 42.1 °F 86% 29.29 in 7.0 mi SW 5.8 mph - N/A   Clear
9:53 AM 45.0 °F - 42.1 °F 90% 29.30 in 4.0 mi Calm Calm - N/A   Clear
10:53 AM 46.0 °F - 42.1 °F 86% 29.29 in 7.0 mi Calm Calm - N/A   Clear
11:53 AM 46.0 °F 44.8 °F 43.0 °F 89% 29.27 in 8.0 mi SSW 3.5 mph - N/A   Clear
12:53 PM 46.9 °F - 42.1 °F 83% 29.23 in 10.0 mi SSW 5.8 mph - N/A   Clear
1:37 PM 48.2 °F - 42.8 °F 82% 29.21 in 10.0 mi Calm Calm - N/A   Mostly Cloudy
1:53 PM 48.0 °F - 39.9 °F 74% 29.23 in 10.0 mi WNW 6.9 mph - N/A   Overcast
2:53 PM 45.0 °F 38.9 °F 39.9 °F 82% 29.22 in 10.0 mi WNW 12.7 mph - N/A   Overcast
3:22 PM 44.6 °F 39.2 °F 39.2 °F 81% 29.17 in 5.0 mi WNW 10.4 mph - N/A   Overcast
3:37 PM 42.8 °F 36.2 °F 39.2 °F 87% 29.16 in 2.5 mi WNW 12.7 mph - N/A   Overcast
3:53 PM 43.0 °F 36.8 °F 39.9 °F 89% 29.19 in 1.5 mi West 11.5 mph - N/A   Overcast
4:21 PM 42.8 °F 37.0 °F 41.0 °F 93% 29.19 in 0.8 mi West 10.4 mph 19.6 mph N/A   Overcast
4:49 PM 42.8 °F 36.6 °F 41.0 °F 93% 29.18 in 0.2 mi West 11.5 mph - 0.01 in Fog Fog
4:53 PM 43.0 °F 35.4 °F 41.0 °F 93% 29.20 in 0.2 mi West 16.1 mph - 0.01 in Fog Fog
4:58 PM 42.8 °F 35.1 °F 41.0 °F 93% 29.18 in 1.0 mi West 16.1 mph - N/A   Overcast
5:08 PM 42.8 °F 35.4 °F 39.2 °F 87% 29.18 in 3.0 mi West 15.0 mph - N/A   Overcast
5:53 PM 42.1 °F 34.2 °F 39.9 °F 92% 29.20 in 7.0 mi West 16.1 mph - N/A   Overcast
6:53 PM 42.1 °F 32.6 °F 39.0 °F 89% 29.21 in 2.5 mi West 23.0 mph 33.4 mph 0.00 in Rain Light Rain
7:06 PM 42.8 °F 32.7 °F 39.2 °F 87% 29.20 in 1.5 mi West 27.6 mph 35.7 mph 0.02 in Rain Light Rain
7:35 PM 42.8 °F 33.1 °F 39.2 °F 87% 29.20 in 3.0 mi West 25.3 mph 32.2 mph 0.09 in Rain Rain
7:53 PM 41.0 °F 30.5 °F 37.9 °F 89% 29.23 in 4.0 mi West 26.5 mph 36.8 mph 0.14 in Rain Rain
8:06 PM 41.0 °F 31.1 °F 37.4 °F 87% 29.21 in 4.0 mi West 23.0 mph 42.6 mph 0.03 in Rain Rain
8:53 PM 39.0 °F 28.0 °F 36.0 °F 89% 29.24 in 3.0 mi West 25.3 mph 41.4 mph 0.14 in Rain Rain
9:15 PM 39.2 °F 27.4 °F 35.6 °F 87% 29.23 in 2.5 mi WNW 29.9 mph 36.8 mph 0.04 in Rain Rain
9:53 PM 37.9 °F 26.1 °F 34.0 °F 86% 29.27 in 6.0 mi WNW 27.6 mph 47.2 mph 0.10 in Rain Light Rain
9:58 PM 37.4 °F 25.2 °F 33.8 °F 87% 29.25 in 10.0 mi WNW 28.8 mph 40.3 mph 0.00 in Rain Light Rain
10:09 PM 37.4 °F 25.0 °F 33.8 °F 87% 29.26 in 10.0 mi WNW 29.9 mph 36.8 mph 0.00 in   Overcast
10:53 PM 36.0 °F 23.0 °F 32.0 °F 86% 29.29 in 10.0 mi WNW 29.9 mph 40.3 mph 0.01 in Rain Light Rain
11:17 PM 35.6 °F 22.1 °F 30.2 °F 81% 29.28 in 8.0 mi West 32.2 mph 44.9 mph 0.00 in   Overcast
11:53 PM 34.0 °F 18.7 °F 28.9 °F 82% 29.32 in 2.5 mi West 39.1 mph 50.6 mph 0.00 in Snow Light Snow